| time (UTC) | temp F | wind direction | speed MPH | gust MPH | rain 1hr in | rain 24hr in | rain mn in | humidity % | barometer mb |
| 20260509074648 | 36 | 121 | 0.0 | 0.0 | 0.00 | 0.00 | 0.00 | 96 | 1004.5 |
| 20260509074144 | 36 | 120 | 0.0 | 0.0 | 0.00 | 0.00 | 0.00 | 96 | 1004.5 |
| 20260509073641 | 35 | 121 | 0.0 | 0.0 | 0.00 | 0.00 | 0.00 | 96 | 1004.7 |
| 20260509073137 | 35 | 121 | 0.0 | 0.0 | 0.00 | 0.00 | 0.00 | 96 | 1004.7 |
| 20260509072635 | 35 | 121 | 0.0 | 0.0 | 0.00 | 0.00 | 0.00 | 96 | 1004.6 |
| 20260509072131 | 35 | 121 | 0.0 | 0.0 | 0.00 | 0.00 | 0.00 | 96 | 1004.8 |
| 20260509071628 | 35 | 121 | 0.0 | 0.0 | 0.00 | 0.00 | 0.00 | 96 | 1004.8 |
| 20260509071126 | 35 | 121 | 0.0 | 0.0 | 0.00 | 0.00 | 0.00 | 96 | 1004.6 |
| 20260509070622 | 35 | 121 | 0.0 | 0.0 | 0.00 | 0.00 | 0.00 | 96 | 1005.0 |
| 20260509070118 | 35 | 121 | 0.0 | 0.0 | 0.00 | 0.00 | 0.00 | 96 | 1005.0 |
| 20260509065614 | 35 | 121 | 0.0 | 0.0 | 0.00 | 0.00 | 0.00 | 96 | 1004.9 |
| 20260509065110 | 35 | 121 | 0.0 | 0.0 | 0.00 | 0.00 | 0.00 | 96 | 1004.9 |
| 20260509064607 | 35 | 121 | 0.0 | 0.0 | 0.00 | 0.00 | 0.00 | 96 | 1005.0 |
| 20260509064106 | 35 | 121 | 0.0 | 0.0 | 0.00 | 0.00 | 0.00 | 95 | 1004.8 |
| 20260509063601 | 35 | 121 | 0.0 | 0.0 | 0.00 | 0.00 | 0.00 | 95 | 1005.3 |
| 20260509063059 | 35 | 121 | 0.0 | 0.0 | 0.00 | 0.00 | 0.00 | 95 | 1005.4 |
| 20260509062555 | 35 | 118 | 0.0 | 0.0 | 0.00 | 0.00 | 0.00 | 95 | 1005.4 |
| 20260509062053 | 35 | 118 | 0.0 | 0.0 | 0.00 | 0.00 | 0.00 | 95 | 1005.4 |
| 20260509061549 | 36 | 118 | 0.0 | 0.0 | 0.00 | 0.00 | 0.00 | 95 | 1005.5 |
| 20260509061047 | 36 | 118 | 0.0 | 0.0 | 0.00 | 0.00 | 0.00 | 95 | 1005.6 |
| 20260509060545 | 36 | 118 | 0.0 | 0.0 | 0.00 | 0.00 | 0.00 | 95 | 1005.6 |
| 20260509060035 | 36 | 118 | 0.0 | 0.0 | 0.00 | 0.00 | 0.00 | 95 | 1005.5 |
| 20260509055531 | 36 | 118 | 0.0 | 0.0 | 0.00 | 0.00 | 0.00 | 94 | 1005.6 |
| 20260509055027 | 36 | 118 | 0.0 | 0.0 | 0.00 | 0.00 | 0.00 | 94 | 1005.7 |
| 20260509054523 | 36 | 120 | 0.0 | 0.0 | 0.00 | 0.00 | 0.00 | 94 | 1005.6 |
| 20260509054021 | 36 | 118 | 0.0 | 0.0 | 0.00 | 0.00 | 0.00 | 94 | 1005.7 |
| 20260509053519 | 37 | 118 | 0.0 | 0.0 | 0.00 | 0.00 | 0.00 | 94 | 1005.8 |
| 20260509053016 | 37 | 118 | 0.0 | 0.0 | 0.00 | 0.00 | 0.00 | 94 | 1005.7 |
| 20260509052514 | 37 | 120 | 0.0 | 0.0 | 0.00 | 0.00 | 0.00 | 94 | 1005.9 |
| 20260509052012 | 37 | 120 | 0.0 | 0.0 | 0.00 | 0.00 | 0.00 | 94 | 1006.2 |
| 20260509051509 | 37 | 120 | 0.0 | 0.0 | 0.00 | 0.00 | 0.00 | 94 | 1006.0 |
| 20260509051006 | 37 | 120 | 0.0 | 0.0 | 0.00 | 0.00 | 0.00 | 94 | 1006.2 |
| 20260509050502 | 37 | 120 | 0.0 | 0.0 | 0.00 | 0.00 | 0.00 | 94 | 1006.1 |
| 20260509045959 | 37 | 120 | 0.0 | 0.0 | 0.00 | 0.00 | 0.00 | 94 | 1006.2 |
| 20260509045456 | 37 | 120 | 0.0 | 0.0 | 0.00 | 0.00 | 0.00 | 94 | 1006.0 |
| 20260509044953 | 37 | 120 | 0.0 | 0.0 | 0.00 | 0.00 | 0.00 | 94 | 1006.3 |
| 20260509044451 | 38 | 120 | 0.0 | 0.0 | 0.00 | 0.00 | 0.00 | 94 | 1006.1 |
| 20260509043948 | 38 | 120 | 0.0 | 0.0 | 0.00 | 0.00 | 0.00 | 94 | 1006.3 |
| 20260509043444 | 38 | 120 | 0.0 | 0.0 | 0.00 | 0.00 | 0.00 | 94 | 1006.4 |
| 20260509042939 | 37 | 120 | 0.0 | 0.0 | 0.00 | 0.00 | 0.00 | 93 | 1006.4 |
| 20260509042437 | 37 | 120 | 0.0 | 0.0 | 0.00 | 0.00 | 0.00 | 93 | 1006.4 |
| 20260509041933 | 37 | 121 | 0.0 | 0.0 | 0.00 | 0.00 | 0.00 | 93 | 1006.5 |
| 20260509041430 | 37 | 121 | 0.0 | 0.0 | 0.00 | 0.00 | 0.00 | 92 | 1006.7 |
| 20260509040927 | 37 | 121 | 0.0 | 0.0 | 0.00 | 0.00 | 0.00 | 92 | 1006.5 |
| 20260509040426 | 37 | 121 | 0.0 | 0.0 | 0.00 | 0.00 | 0.00 | 92 | 1006.6 |
| 20260509035922 | 37 | 121 | 0.0 | 0.0 | 0.00 | 0.04 | 0.04 | 92 | 1006.4 |
| 20260509035419 | 38 | 121 | 0.0 | 0.0 | 0.00 | 0.04 | 0.04 | 91 | 1006.7 |
| 20260509034915 | 38 | 121 | 0.0 | 0.0 | 0.00 | 0.04 | 0.04 | 91 | 1006.5 |
| 20260509034414 | 38 | 121 | 0.0 | 0.0 | 0.00 | 0.04 | 0.04 | 91 | 1006.6 |
| 20260509033910 | 38 | 121 | 0.0 | 0.0 | 0.00 | 0.04 | 0.04 | 91 | 1006.7 |
| 20260509033407 | 38 | 121 | 0.0 | 0.0 | 0.00 | 0.04 | 0.04 | 90 | 1006.7 |
| 20260509032904 | 39 | 121 | 0.0 | 0.0 | 0.00 | 0.04 | 0.04 | 90 | 1006.6 |
| 20260509032401 | 39 | 121 | 0.0 | 0.0 | 0.00 | 0.04 | 0.04 | 90 | 1006.8 |
| 20260509031859 | 39 | 121 | 0.0 | 0.0 | 0.00 | 0.04 | 0.04 | 90 | 1006.6 |
| 20260509031356 | 39 | 121 | 0.0 | 0.0 | 0.00 | 0.04 | 0.04 | 89 | 1006.7 |
| 20260509030854 | 39 | 120 | 0.0 | 0.0 | 0.00 | 0.04 | 0.04 | 89 | 1006.7 |
| 20260509030352 | 39 | 120 | 0.0 | 0.0 | 0.00 | 0.04 | 0.04 | 89 | 1006.8 |
| 20260509025849 | 39 | 120 | 0.0 | 0.0 | 0.00 | 0.04 | 0.04 | 89 | 1006.8 |
| 20260509025343 | 40 | 120 | 0.0 | 0.0 | 0.00 | 0.04 | 0.04 | 89 | 1006.9 |
| 20260509024839 | 40 | 120 | 0.0 | 0.0 | 0.00 | 0.04 | 0.04 | 89 | 1006.8 |
| 20260509024335 | 40 | 120 | 0.0 | 0.0 | 0.00 | 0.04 | 0.04 | 88 | 1006.6 |
| 20260509023833 | 40 | 121 | 0.0 | 0.0 | 0.00 | 0.04 | 0.04 | 88 | 1006.6 |
| 20260509023330 | 40 | 120 | 0.0 | 0.0 | 0.00 | 0.04 | 0.04 | 88 | 1006.6 |
| 20260509022826 | 41 | 120 | 0.0 | 0.0 | 0.00 | 0.04 | 0.04 | 87 | 1006.7 |
| 20260509022324 | 41 | 120 | 0.0 | 0.0 | 0.00 | 0.04 | 0.04 | 86 | 1006.8 |
| 20260509021820 | 41 | 120 | 0.0 | 0.0 | 0.00 | 0.04 | 0.04 | 86 | 1006.6 |
| 20260509021318 | 41 | 120 | 0.0 | 0.0 | 0.00 | 0.04 | 0.04 | 86 | 1006.8 |
| 20260509020815 | 41 | 120 | 0.0 | 0.0 | 0.00 | 0.04 | 0.04 | 85 | 1006.7 |
| 20260509020313 | 42 | 119 | 0.0 | 0.0 | 0.00 | 0.04 | 0.04 | 84 | 1006.8 |
| 20260509015811 | 42 | 119 | 0.0 | 0.0 | 0.00 | 0.04 | 0.04 | 83 | 1006.9 |
| 20260509015309 | 42 | 119 | 0.0 | 0.0 | 0.00 | 0.04 | 0.04 | 83 | 1006.7 |
| 20260509014805 | 43 | 119 | 0.0 | 0.0 | 0.00 | 0.04 | 0.04 | 82 | 1006.8 |
| 20260509014302 | 43 | 119 | 0.0 | 0.0 | 0.00 | 0.04 | 0.04 | 82 | 1006.8 |
| 20260509013758 | 43 | 117 | 0.0 | 0.0 | 0.00 | 0.04 | 0.04 | 81 | 1006.8 |
| 20260509013254 | 44 | 111 | 0.0 | 0.0 | 0.00 | 0.04 | 0.04 | 80 | 1006.8 |
| 20260509012751 | 44 | 111 | 0.0 | 0.0 | 0.00 | 0.04 | 0.04 | 79 | 1006.8 |
| 20260509012248 | 44 | 121 | 0.0 | 0.0 | 0.00 | 0.04 | 0.04 | 77 | 1006.9 |
| 20260509011745 | 44 | 121 | 0.0 | 0.0 | 0.00 | 0.04 | 0.04 | 76 | 1006.9 |
| 20260509011242 | 45 | 121 | 0.0 | 0.0 | 0.00 | 0.04 | 0.04 | 75 | 1006.7 |
| 20260509010740 | 44 | 121 | 0.0 | 0.0 | 0.00 | 0.04 | 0.04 | 75 | 1006.6 |
| 20260509010237 | 45 | 111 | 0.0 | 0.0 | 0.00 | 0.04 | 0.04 | 74 | 1006.6 |
| 20260509005734 | 46 | 111 | 0.0 | 0.0 | 0.00 | 0.04 | 0.04 | 74 | 1006.5 |
| 20260509005232 | 46 | 111 | 0.0 | 0.0 | 0.00 | 0.04 | 0.04 | 73 | 1006.3 |
| 20260509004731 | 46 | 120 | 0.0 | 0.0 | 0.00 | 0.04 | 0.04 | 71 | 1006.1 |
| 20260509004229 | 47 | 120 | 0.0 | 0.0 | 0.00 | 0.04 | 0.04 | 70 | 1006.0 |
| 20260509003727 | 47 | 120 | 0.0 | 0.0 | 0.00 | 0.04 | 0.04 | 70 | 1006.2 |
| 20260509003224 | 47 | 120 | 0.0 | 0.0 | 0.00 | 0.04 | 0.04 | 68 | 1006.0 |
| 20260509002721 | 48 | 120 | 0.0 | 0.0 | 0.00 | 0.04 | 0.04 | 67 | 1006.0 |
| 20260509002219 | 49 | 120 | 0.0 | 0.0 | 0.00 | 0.04 | 0.04 | 67 | 1006.2 |
| 20260509001717 | 49 | 120 | 0.0 | 0.0 | 0.00 | 0.04 | 0.04 | 65 | 1006.1 |
| 20260509001212 | 50 | 120 | 0.0 | 0.0 | 0.00 | 0.04 | 0.04 | 63 | 1006.0 |
| 20260509000711 | 50 | 120 | 0.0 | 0.0 | 0.00 | 0.04 | 0.04 | 61 | 1006.1 |
| 20260509000207 | 51 | 120 | 0.0 | 0.0 | 0.00 | 0.04 | 0.04 | 61 | 1005.9 |
| 20260508235704 | 51 | 120 | 0.0 | 0.0 | 0.00 | 0.04 | 0.04 | 59 | 1005.9 |
| 20260508235201 | 51 | 120 | 0.0 | 0.0 | 0.00 | 0.04 | 0.04 | 56 | 1005.9 |
| 20260508234658 | 52 | 120 | 0.0 | 0.0 | 0.00 | 0.04 | 0.04 | 55 | 1005.9 |
| 20260508234155 | 53 | 120 | 0.0 | 0.0 | 0.00 | 0.04 | 0.04 | 55 | 1006.1 |
| 20260508233654 | 53 | 120 | 0.0 | 0.0 | 0.00 | 0.04 | 0.04 | 53 | 1006.0 |
| 20260508233151 | 54 | 120 | 0.0 | 0.0 | 0.00 | 0.04 | 0.04 | 53 | 1005.8 |
| 20260508232648 | 54 | 121 | 0.0 | 0.0 | 0.00 | 0.04 | 0.04 | 51 | 1005.8 |
| 20260508232145 | 54 | 88 | 1.0 | 1.0 | 0.00 | 0.04 | 0.04 | 52 | 1005.6 |
| 20260508231643 | 54 | 123 | 0.0 | 0.0 | 0.00 | 0.04 | 0.04 | 52 | 1005.8 |
| 20260508231139 | 54 | 83 | 0.0 | 0.0 | 0.00 | 0.04 | 0.04 | 51 | 1005.9 |
| 20260508230636 | 54 | 69 | 1.0 | 1.0 | 0.00 | 0.04 | 0.04 | 49 | 1005.6 |
| 20260508230132 | 55 | 155 | 0.0 | 0.0 | 0.00 | 0.04 | 0.04 | 48 | 1005.7 |
| 20260508225631 | 55 | 170 | 1.0 | 1.0 | 0.00 | 0.04 | 0.04 | 43 | 1005.8 |
| 20260508225126 | 55 | 181 | 0.0 | 0.0 | 0.00 | 0.04 | 0.04 | 46 | 1005.8 |
| 20260508224624 | 55 | 183 | 0.0 | 0.0 | 0.00 | 0.04 | 0.04 | 43 | 1005.9 |
| 20260508224122 | 55 | 136 | 0.0 | 0.0 | 0.00 | 0.04 | 0.04 | 44 | 1005.7 |
| 20260508223619 | 56 | 116 | 0.0 | 0.0 | 0.00 | 0.04 | 0.04 | 43 | 1005.8 |
| 20260508223116 | 56 | 108 | 0.0 | 0.0 | 0.00 | 0.04 | 0.04 | 42 | 1005.8 |
| 20260508222614 | 56 | 136 | 0.0 | 0.0 | 0.00 | 0.04 | 0.04 | 40 | 1006.0 |
| 20260508222111 | 56 | 172 | 0.0 | 0.0 | 0.00 | 0.04 | 0.04 | 39 | 1005.5 |
| 20260508221607 | 56 | 179 | 0.0 | 1.0 | 0.00 | 0.04 | 0.04 | 43 | 1005.7 |
| 20260508221103 | 56 | 53 | 1.0 | 2.0 | 0.00 | 0.04 | 0.04 | 43 | 1005.8 |
| 20260508220559 | 56 | 48 | 1.0 | 2.0 | 0.00 | 0.04 | 0.04 | 42 | 1005.8 |
| 20260508220055 | 56 | 248 | 2.0 | 2.0 | 0.00 | 0.04 | 0.04 | 42 | 1005.8 |
| 20260508215553 | 56 | 250 | 2.0 | 3.0 | 0.00 | 0.04 | 0.04 | 41 | 1006.1 |
| 20260508215050 | 56 | 126 | 1.0 | 1.0 | 0.00 | 0.04 | 0.04 | 39 | 1005.8 |
| 20260508214547 | 57 | 238 | 3.0 | 3.0 | 0.00 | 0.04 | 0.04 | 41 | 1005.9 |
| 20260508214043 | 57 | 165 | 0.0 | 0.0 | 0.00 | 0.04 | 0.04 | 43 | 1005.8 |
| 20260508213541 | 57 | 91 | 1.0 | 2.0 | 0.00 | 0.04 | 0.04 | 41 | 1005.8 |
| 20260508213036 | 56 | 51 | 2.0 | 2.0 | 0.00 | 0.04 | 0.04 | 46 | 1005.9 |
| 20260508212533 | 57 | 222 | 2.0 | 3.0 | 0.00 | 0.04 | 0.04 | 43 | 1005.8 |
| 20260508212029 | 57 | 194 | 1.0 | 1.0 | 0.00 | 0.04 | 0.04 | 42 | 1005.9 |
| 20260508211525 | 56 | 178 | 0.0 | 1.0 | 0.00 | 0.04 | 0.04 | 40 | 1005.9 |
| 20260508211022 | 56 | 194 | 2.0 | 2.0 | 0.00 | 0.04 | 0.04 | 42 | 1005.7 |
| 20260508210518 | 57 | 46 | 1.0 | 2.0 | 0.00 | 0.04 | 0.04 | 44 | 1005.8 |
| 20260508210016 | 57 | 224 | 0.0 | 1.0 | 0.00 | 0.04 | 0.04 | 43 | 1006.0 |
| 20260508205512 | 57 | 133 | 0.0 | 0.0 | 0.00 | 0.04 | 0.04 | 49 | 1006.1 |
| 20260508205009 | 56 | 138 | 0.0 | 1.0 | 0.00 | 0.04 | 0.04 | 47 | 1005.8 |
| 20260508204506 | 56 | 139 | 0.0 | 0.0 | 0.00 | 0.04 | 0.04 | 45 | 1006.2 |
| 20260508204001 | 57 | 65 | 1.0 | 2.0 | 0.00 | 0.04 | 0.04 | 49 | 1006.2 |
| 20260508203457 | 56 | 314 | 1.0 | 1.0 | 0.00 | 0.04 | 0.04 | 52 | 1006.0 |
| 20260508202953 | 56 | 84 | 4.0 | 4.0 | 0.00 | 0.04 | 0.04 | 52 | 1006.4 |
| 20260508202451 | 57 | 85 | 1.0 | 2.0 | 0.00 | 0.04 | 0.04 | 43 | 1006.2 |
| 20260508201947 | 58 | 224 | 3.0 | 4.0 | 0.00 | 0.04 | 0.04 | 45 | 1006.5 |
| 20260508201444 | 59 | 199 | 2.0 | 3.0 | 0.00 | 0.04 | 0.04 | 39 | 1006.4 |
| 20260508200941 | 59 | 343 | 1.0 | 1.0 | 0.00 | 0.04 | 0.04 | 39 | 1006.5 |
| 20260508200438 | 58 | 195 | 2.0 | 2.0 | 0.00 | 0.04 | 0.04 | 43 | 1006.6 |
| 20260508195933 | 59 | 240 | 1.0 | 2.0 | 0.00 | 0.04 | 0.04 | 41 | 1006.4 |
| 20260508195431 | 57 | 222 | 2.0 | 2.0 | 0.00 | 0.04 | 0.04 | 41 | 1006.7 |
| 20260508194926 | 56 | 189 | 3.0 | 3.0 | 0.00 | 0.04 | 0.04 | 46 | 1006.6 |
| 20260508194424 | 57 | 134 | 0.0 | 0.0 | 0.00 | 0.04 | 0.04 | 44 | 1006.6 |
| 20260508193921 | 57 | 230 | 1.0 | 2.0 | 0.00 | 0.04 | 0.04 | 45 | 1006.6 |
| 20260508193418 | 57 | 225 | 2.0 | 2.0 | 0.00 | 0.04 | 0.04 | 42 | 1006.9 |
| 20260508192914 | 58 | 203 | 3.0 | 3.0 | 0.00 | 0.04 | 0.04 | 44 | 1007.0 |
| 20260508192411 | 58 | 248 | 3.0 | 3.0 | 0.00 | 0.04 | 0.04 | 45 | 1006.9 |
| 20260508191908 | 56 | 156 | 1.0 | 1.0 | 0.00 | 0.04 | 0.04 | 43 | 1007.0 |
| 20260508191405 | 56 | 243 | 2.0 | 3.0 | 0.00 | 0.04 | 0.04 | 44 | 1007.0 |
| 20260508190902 | 55 | 220 | 1.0 | 1.0 | 0.00 | 0.04 | 0.04 | 47 | 1007.3 |
| 20260508190359 | 57 | 169 | 3.0 | 3.0 | 0.00 | 0.04 | 0.04 | 44 | 1007.1 |
| 20260508185855 | 55 | 174 | 2.0 | 4.0 | 0.00 | 0.04 | 0.04 | 45 | 1007.2 |
| 20260508185353 | 54 | 208 | 1.0 | 2.0 | 0.00 | 0.04 | 0.04 | 46 | 1007.2 |
| 20260508184850 | 55 | 223 | 2.0 | 2.0 | 0.00 | 0.04 | 0.04 | 46 | 1007.3 |
| 20260508184347 | 57 | 114 | 1.0 | 1.0 | 0.00 | 0.04 | 0.04 | 45 | 1007.3 |
| 20260508183844 | 57 | 74 | 1.0 | 1.0 | 0.00 | 0.04 | 0.04 | 45 | 1007.1 |
| 20260508183340 | 55 | 258 | 2.0 | 3.0 | 0.00 | 0.04 | 0.04 | 45 | 1007.2 |
| 20260508182836 | 57 | 238 | 4.0 | 4.0 | 0.00 | 0.04 | 0.04 | 45 | 1007.2 |
| 20260508182333 | 55 | 169 | 1.0 | 2.0 | 0.00 | 0.04 | 0.04 | 47 | 1007.3 |
| 20260508181829 | 53 | 194 | 1.0 | 1.0 | 0.00 | 0.04 | 0.04 | 55 | 1007.2 |
| 20260508181326 | 56 | 171 | 3.0 | 4.0 | 0.00 | 0.04 | 0.04 | 49 | 1007.3 |
| 20260508180823 | 55 | 174 | 3.0 | 3.0 | 0.00 | 0.04 | 0.04 | 48 | 1007.3 |
| 20260508180320 | 55 | 202 | 3.0 | 4.0 | 0.00 | 0.04 | 0.04 | 51 | 1007.5 |
| 20260508175816 | 55 | 208 | 1.0 | 1.0 | 0.00 | 0.04 | 0.04 | 48 | 1007.4 |
| 20260508175312 | 56 | 206 | 5.0 | 7.0 | 0.00 | 0.04 | 0.04 | 51 | 1007.3 |
| 20260508174811 | 55 | 188 | 1.0 | 2.0 | 0.00 | 0.04 | 0.04 | 46 | 1007.4 |
| 20260508174308 | 54 | 272 | 2.0 | 3.0 | 0.00 | 0.04 | 0.04 | 50 | 1007.9 |
| 20260508173804 | 53 | 251 | 1.0 | 1.0 | 0.00 | 0.04 | 0.04 | 57 | 1007.6 |
| 20260508173301 | 55 | 198 | 1.0 | 2.0 | 0.00 | 0.04 | 0.04 | 54 | 1007.6 |
| 20260508172757 | 53 | 143 | 1.0 | 1.0 | 0.00 | 0.04 | 0.04 | 55 | 1007.6 |
| 20260508172254 | 52 | 207 | 0.0 | 1.0 | 0.00 | 0.04 | 0.04 | 59 | 1007.9 |
| 20260508171750 | 53 | 204 | 5.0 | 7.0 | 0.00 | 0.04 | 0.04 | 59 | 1007.9 |
| 20260508171246 | 53 | 224 | 2.0 | 2.0 | 0.00 | 0.04 | 0.04 | 59 | 1008.1 |
| 20260508170743 | 51 | 178 | 0.0 | 0.0 | 0.00 | 0.04 | 0.04 | 66 | 1007.9 |
| 20260508170242 | 51 | 176 | 1.0 | 1.0 | 0.00 | 0.04 | 0.04 | 66 | 1008.1 |
| 20260508165738 | 52 | 190 | 0.0 | 1.0 | 0.00 | 0.04 | 0.04 | 57 | 1008.0 |
| 20260508165235 | 51 | 195 | 1.0 | 3.0 | 0.00 | 0.04 | 0.04 | 67 | 1008.1 |
| 20260508164731 | 50 | 236 | 2.0 | 3.0 | 0.00 | 0.04 | 0.04 | 66 | 1008.1 |
| 20260508164228 | 49 | 168 | 1.0 | 1.0 | 0.00 | 0.04 | 0.04 | 67 | 1007.7 |
| 20260508163726 | 50 | 180 | 1.0 | 1.0 | 0.00 | 0.04 | 0.04 | 67 | 1008.1 |
| 20260508163223 | 50 | 211 | 1.0 | 2.0 | 0.00 | 0.04 | 0.04 | 70 | 1008.3 |
| 20260508162719 | 49 | 229 | 2.0 | 2.0 | 0.00 | 0.04 | 0.04 | 67 | 1008.6 |
| 20260508162216 | 50 | 175 | 0.0 | 1.0 | 0.00 | 0.04 | 0.04 | 67 | 1008.4 |
| 20260508161713 | 49 | 221 | 2.0 | 2.0 | 0.00 | 0.04 | 0.04 | 66 | 1008.6 |
| 20260508161211 | 49 | 193 | 1.0 | 1.0 | 0.00 | 0.04 | 0.04 | 68 | 1008.8 |
| 20260508160709 | 49 | 181 | 1.0 | 1.0 | 0.00 | 0.04 | 0.04 | 67 | 1008.5 |
| 20260508160206 | 50 | 218 | 2.0 | 3.0 | 0.00 | 0.04 | 0.04 | 68 | 1008.6 |
| 20260508155703 | 48 | 226 | 2.0 | 2.0 | 0.00 | 0.04 | 0.04 | 70 | 1008.7 |
| 20260508155200 | 50 | 228 | 3.0 | 4.0 | 0.00 | 0.04 | 0.04 | 69 | 1008.7 |
| 20260508154657 | 48 | 261 | 3.0 | 3.0 | 0.00 | 0.04 | 0.04 | 73 | 1008.5 |
| 20260508154154 | 49 | 202 | 1.0 | 1.0 | 0.00 | 0.04 | 0.04 | 71 | 1008.7 |
| 20260508153650 | 48 | 172 | 1.0 | 1.0 | 0.00 | 0.04 | 0.04 | 73 | 1008.8 |
| 20260508153148 | 49 | 188 | 3.0 | 4.0 | 0.00 | 0.04 | 0.04 | 75 | 1008.5 |
| 20260508152644 | 48 | 242 | 2.0 | 2.0 | 0.00 | 0.04 | 0.04 | 74 | 1008.4 |
| 20260508152139 | 48 | 174 | 4.0 | 6.0 | 0.00 | 0.04 | 0.04 | 75 | 1008.5 |
| 20260508151636 | 46 | 176 | 2.0 | 2.0 | 0.00 | 0.04 | 0.04 | 77 | 1008.6 |
| 20260508151133 | 46 | 160 | 1.0 | 1.0 | 0.00 | 0.04 | 0.04 | 79 | 1008.7 |
| 20260508150630 | 46 | 199 | 2.0 | 2.0 | 0.00 | 0.04 | 0.04 | 80 | 1008.8 |
| 20260508150127 | 46 | 207 | 1.0 | 2.0 | 0.00 | 0.04 | 0.04 | 80 | 1008.8 |
| 20260508145623 | 45 | 170 | 1.0 | 1.0 | 0.00 | 0.04 | 0.04 | 80 | 1008.6 |
| 20260508145119 | 46 | 176 | 0.0 | 0.0 | 0.00 | 0.04 | 0.04 | 82 | 1008.4 |
| 20260508144617 | 45 | 190 | 0.0 | 1.0 | 0.00 | 0.04 | 0.04 | 82 | 1008.7 |
| 20260508144114 | 45 | 248 | 1.0 | 2.0 | 0.00 | 0.04 | 0.04 | 83 | 1008.4 |
| 20260508143612 | 44 | 228 | 2.0 | 2.0 | 0.00 | 0.04 | 0.04 | 83 | 1008.6 |
| 20260508143108 | 45 | 236 | 3.0 | 4.0 | 0.00 | 0.04 | 0.04 | 82 | 1008.5 |
| 20260508142559 | 45 | 178 | 1.0 | 1.0 | 0.00 | 0.04 | 0.04 | 85 | 1008.7 |
| 20260508142056 | 44 | 240 | 2.0 | 3.0 | 0.00 | 0.04 | 0.04 | 86 | 1008.5 |
| 20260508141552 | 44 | 164 | 0.0 | 0.0 | 0.00 | 0.04 | 0.04 | 86 | 1008.5 |
| 20260508141044 | 43 | 218 | 1.0 | 1.0 | 0.00 | 0.04 | 0.04 | 86 | 1008.5 |
| 20260508140542 | 43 | 223 | 2.0 | 2.0 | 0.00 | 0.04 | 0.04 | 88 | 1008.5 |
| 20260508140038 | 42 | 185 | 2.0 | 2.0 | 0.00 | 0.04 | 0.04 | 86 | 1008.4 |
| 20260508135533 | 43 | 189 | 1.0 | 1.0 | 0.00 | 0.04 | 0.04 | 88 | 1008.7 |
| 20260508135030 | 43 | 197 | 2.0 | 2.0 | 0.00 | 0.04 | 0.04 | 86 | 1008.8 |
| 20260508134527 | 43 | 181 | 0.0 | 0.0 | 0.00 | 0.04 | 0.04 | 88 | 1008.9 |
| 20260508134024 | 42 | 200 | 1.0 | 2.0 | 0.00 | 0.04 | 0.04 | 89 | 1008.7 |
| 20260508133520 | 42 | 152 | 0.0 | 0.0 | 0.00 | 0.04 | 0.04 | 89 | 1008.7 |
| 20260508133018 | 42 | 169 | 0.0 | 0.0 | 0.00 | 0.04 | 0.04 | 90 | 1008.8 |
| 20260508132515 | 42 | 177 | 1.0 | 1.0 | 0.00 | 0.04 | 0.04 | 90 | 1008.8 |
| 20260508132012 | 42 | 152 | 0.0 | 0.0 | 0.00 | 0.04 | 0.04 | 91 | 1008.7 |
| 20260508131506 | 42 | 193 | 0.0 | 0.0 | 0.00 | 0.04 | 0.04 | 91 | 1008.8 |
| 20260508131003 | 41 | 176 | 0.0 | 0.0 | 0.00 | 0.04 | 0.04 | 92 | 1008.6 |
| 20260508130501 | 41 | 191 | 2.0 | 2.0 | 0.00 | 0.04 | 0.04 | 92 | 1008.6 |
| 20260508125956 | 42 | 263 | 2.0 | 3.0 | 0.00 | 0.04 | 0.04 | 92 | 1008.7 |
| 20260508125453 | 41 | 185 | 0.0 | 1.0 | 0.00 | 0.04 | 0.04 | 93 | 1008.7 |
| 20260508124951 | 41 | 179 | 0.0 | 1.0 | 0.00 | 0.04 | 0.04 | 94 | 1008.5 |
| 20260508124449 | 41 | 188 | 1.0 | 1.0 | 0.07 | 0.04 | 0.04 | 94 | 1008.6 |
| 20260508123946 | 40 | 182 | 0.0 | 0.0 | 0.07 | 0.04 | 0.04 | 95 | 1008.7 |
| 20260508123444 | 40 | 179 | 0.0 | 0.0 | 0.00 | 0.03 | 0.03 | 97 | 1008.6 |
| 20260508122940 | 39 | 178 | 0.0 | 0.0 | 0.00 | 0.03 | 0.03 | 97 | 1008.6 |
| 20260508122437 | 39 | 177 | 0.0 | 0.0 | 0.00 | 0.03 | 0.03 | 98 | 1008.5 |
| 20260508121934 | 40 | 194 | 1.0 | 1.0 | 0.05 | 0.03 | 0.03 | 99 | 1008.5 |
| 20260508121433 | 40 | 202 | 1.0 | 1.0 | 0.12 | 0.03 | 0.03 | 99 | 1008.5 |
| 20260508120930 | 41 | 126 | 0.0 | 0.0 | 0.07 | 0.02 | 0.02 | 99 | 1008.5 |
| 20260508120428 | 41 | 174 | 0.0 | 0.0 | 0.00 | 0.01 | 0.01 | 99 | 1008.3 |
| 20260508115925 | 40 | 136 | 0.0 | 0.0 | 0.00 | 0.01 | 0.01 | 99 | 1008.5 |
| 20260508115423 | 40 | 164 | 0.0 | 0.0 | 0.00 | 0.01 | 0.01 | 99 | 1008.0 |
| 20260508114919 | 40 | 185 | 0.0 | 1.0 | 0.00 | 0.01 | 0.01 | 99 | 1008.1 |
| 20260508114416 | 40 | 178 | 0.0 | 0.0 | 0.00 | 0.01 | 0.01 | 99 | 1007.7 |
| 20260508113912 | 40 | 179 | 0.0 | 0.0 | 0.00 | 0.01 | 0.01 | 99 | 1007.4 |
| 20260508113410 | 40 | 178 | 0.0 | 0.0 | 0.00 | 0.01 | 0.01 | 99 | 1007.6 |
| 20260508112907 | 40 | 178 | 0.0 | 0.0 | 0.00 | 0.01 | 0.01 | 99 | 1007.4 |
| 20260508112404 | 40 | 170 | 0.0 | 0.0 | 0.00 | 0.01 | 0.01 | 99 | 1007.3 |
| 20260508111901 | 40 | 176 | 0.0 | 0.0 | 0.00 | 0.01 | 0.01 | 99 | 1007.4 |
| 20260508111358 | 40 | 177 | 0.0 | 0.0 | 0.00 | 0.01 | 0.01 | 99 | 1007.3 |
| 20260508110855 | 40 | 176 | 0.0 | 0.0 | 0.00 | 0.01 | 0.01 | 99 | 1007.3 |
| 20260508110352 | 40 | 176 | 0.0 | 0.0 | 0.00 | 0.01 | 0.01 | 99 | 1007.0 |
| 20260508105852 | 39 | 177 | 0.0 | 0.0 | 0.00 | 0.01 | 0.01 | 99 | 1007.0 |
| 20260508105349 | 39 | 177 | 0.0 | 0.0 | 0.00 | 0.01 | 0.01 | 99 | 1007.0 |
| 20260508104846 | 39 | 177 | 0.0 | 0.0 | 0.00 | 0.01 | 0.01 | 99 | 1007.0 |
| 20260508104342 | 39 | 177 | 0.0 | 0.0 | 0.00 | 0.01 | 0.01 | 99 | 1006.8 |
| 20260508103840 | 39 | 177 | 0.0 | 0.0 | 0.00 | 0.01 | 0.01 | 99 | 1006.7 |
| 20260508103337 | 38 | 177 | 0.0 | 0.0 | 0.00 | 0.01 | 0.01 | 99 | 1007.0 |
| 20260508102834 | 38 | 177 | 0.0 | 0.0 | 0.00 | 0.01 | 0.01 | 99 | 1006.8 |
| 20260508102332 | 38 | 177 | 0.0 | 0.0 | 0.00 | 0.01 | 0.01 | 99 | 1006.7 |
| 20260508101829 | 38 | 176 | 0.0 | 0.0 | 0.00 | 0.01 | 0.01 | 99 | 1006.9 |
| 20260508101327 | 38 | 176 | 0.0 | 0.0 | 0.00 | 0.01 | 0.01 | 99 | 1006.6 |
| 20260508100824 | 38 | 176 | 0.0 | 0.0 | 0.00 | 0.01 | 0.01 | 99 | 1006.9 |
| 20260508100323 | 38 | 176 | 0.0 | 0.0 | 0.00 | 0.01 | 0.01 | 99 | 1006.8 |
| 20260508095818 | 38 | 176 | 0.0 | 0.0 | 0.00 | 0.01 | 0.01 | 99 | 1006.9 |
| 20260508095316 | 38 | 176 | 0.0 | 0.0 | 0.00 | 0.01 | 0.01 | 99 | 1006.9 |
| 20260508094813 | 38 | 176 | 0.0 | 0.0 | 0.00 | 0.01 | 0.01 | 99 | 1006.9 |
| 20260508094310 | 38 | 176 | 0.0 | 0.0 | 0.00 | 0.01 | 0.01 | 99 | 1007.2 |
| 20260508093807 | 38 | 176 | 0.0 | 0.0 | 0.00 | 0.01 | 0.01 | 99 | 1007.3 |
| 20260508093304 | 38 | 176 | 0.0 | 0.0 | 0.00 | 0.01 | 0.01 | 99 | 1007.1 |
| 20260508092801 | 38 | 176 | 0.0 | 0.0 | 0.00 | 0.01 | 0.01 | 99 | 1007.2 |
| 20260508092259 | 38 | 176 | 0.0 | 0.0 | 0.00 | 0.01 | 0.01 | 99 | 1007.2 |
| 20260508091757 | 38 | 177 | 0.0 | 0.0 | 0.00 | 0.01 | 0.01 | 99 | 1007.4 |
| 20260508091253 | 38 | 177 | 0.0 | 0.0 | 0.00 | 0.01 | 0.01 | 99 | 1007.6 |
| 20260508090751 | 37 | 177 | 0.0 | 0.0 | 0.00 | 0.01 | 0.01 | 99 | 1007.3 |
| 20260508090249 | 37 | 177 | 0.0 | 0.0 | 0.00 | 0.01 | 0.01 | 99 | 1007.4 |
| 20260508085745 | 37 | 177 | 0.0 | 0.0 | 0.00 | 0.01 | 0.01 | 99 | 1007.5 |
| 20260508085242 | 37 | 177 | 0.0 | 0.0 | 0.00 | 0.01 | 0.01 | 99 | 1007.3 |
| 20260508084738 | 37 | 177 | 0.0 | 0.0 | 0.00 | 0.01 | 0.01 | 99 | 1007.4 |
| 20260508084236 | 37 | 177 | 0.0 | 0.0 | 0.00 | 0.01 | 0.01 | 99 | 1007.4 |
| 20260508083733 | 37 | 177 | 0.0 | 0.0 | 0.00 | 0.01 | 0.01 | 99 | 1007.3 |
| 20260508083231 | 36 | 177 | 0.0 | 0.0 | 0.00 | 0.01 | 0.01 | 99 | 1007.3 |
| 20260508082731 | 36 | 177 | 0.0 | 0.0 | 0.00 | 0.01 | 0.01 | 99 | 1007.2 |
| 20260508082229 | 36 | 177 | 0.0 | 0.0 | 0.00 | 0.01 | 0.01 | 98 | 1007.2 |
| 20260508081726 | 36 | 177 | 0.0 | 0.0 | 0.00 | 0.01 | 0.01 | 98 | 1007.2 |
| 20260508081222 | 36 | 177 | 0.0 | 0.0 | 0.00 | 0.01 | 0.01 | 98 | 1007.0 |
| 20260508080720 | 36 | 177 | 0.0 | 0.0 | 0.00 | 0.01 | 0.01 | 98 | 1007.2 |
| 20260508080218 | 37 | 177 | 0.0 | 0.0 | 0.00 | 0.01 | 0.01 | 98 | 1007.3 |
| 20260508075714 | 37 | 177 | 0.0 | 0.0 | 0.00 | 0.01 | 0.01 | 98 | 1007.1 |
| 20260508075211 | 37 | 177 | 0.0 | 0.0 | 0.00 | 0.01 | 0.01 | 98 | 1007.3 |